Theta_e
316 313 313 313 313 313 314 314 314 315 315 316 314 314 314 315 316 315 319 320 319 320 320 320 320 320 321 321 323 324 329 328 326 326 338 345 347 345 346 348 346 348 347 345
314 313 313 314 314 315 315 314 314 314 316 315 316 316 316 316 316 318 319 320 320 320 320 321 320 321 320 321 322 323 324 323 321 321 320 330 338 343 345 345 344 343 344 345
313 314 315 316 316 317 316 315 315 316 317 317 317 315 315 315 318 319 319 320 320 320 321 320 320 320 321 321 322 323 322 322 321 321 320 320 321 327 335 343 345 344 344 344
313 315 315 316 317 317 317 317 317 317 316 314 316 314 314 314 314 316 319 319 320 320 320 321 320 320 321 323 323 323 322 322 322 321 321 321 321 320 319 319 320 324 332 336
315 317 317 317 317 317 316 316 317 317 316 314 314 313 313 314 315 314 315 319 323 324 321 321 321 322 323 324 323 322 322 322 322 323 322 324 327 327 326 325 323 322 324 326
316 317 317 317 317 317 317 317 315 313 312 314 314 313 313 314 315 315 317 322 323 321 319 322 323 322 322 322 322 322 322 324 325 326 326 325 325 326 326 325 325 324 323 323
316 316 316 317 318 318 316 313 314 315 314 316 318 320 314 316 323 322 321 320 321 321 322 322 322 322 321 321 321 321 322 322 322 322 322 322 321 320 322 323 323 323 321 321
317 320 320 320 320 321 320 316 314 319 318 318 320 320 320 322 323 322 321 319 321 321 320 320 320 320 320 320 320 320 320 319 319 319 319 319 318 318 320 320 321 320 321 324
317 321 320 320 320 319 321 321 318 319 320 320 319 319 318 323 322 322 321 320 319 320 320 320 319 319 319 319 319 319 319 319 319 319 318 318 318 318 318 318 318 317 320 319
320 320 319 320 318 318 319 319 321 318 320 322 321 321 321 324 323 322 322 322 320 319 319 319 319 318 318 318 317 317 316 316 316 316 317 319 319 319 318 318 316 317 317 317
318 318 319 318 319 318 315 316 319 319 324 326 323 319 320 320 320 320 320 321 323 323 323 320 317 317 317 317 317 317 317 316 315 316 319 318 318 318 318 318 317 317 316 316
317 317 319 319 316 315 315 318 320 321 324 325 325 323 318 318 317 319 319 319 319 320 321 321 320 319 319 319 319 317 317 316 315 315 317 317 316 316 316 316 316 316 315 314
316 315 315 312 311 313 317 318 318 319 317 321 325 322 319 318 316 317 318 317 318 320 319 319 318 317 316 316 316 315 315 315 315 315 315 315 314 314 314 314 314 314 314 313
314 313 313 312 311 313 315 315 314 318 318 318 319 318 316 316 317 319 318 317 318 318 316 315 315 315 315 315 314 314 314 314 314 314 314 313 313 313 312 312 312 312 312 312
310 311 313 313 314 315 314 315 314 313 313 316 315 315 314 314 315 315 316 316 314 313 313 312 312 312 312 313 313 312 312 312 312 311 311 311 311 311 312 312 313 312 312 311
310 311 314 315 315 314 315 314 313 314 315 314 314 315 314 315 314 314 312 311 311 310 310 310 310 310 310 310 309 308 307 307 306 307 307 307 307 307 308 309 310 311 311 312
311 311 311 313 313 312 313 312 312 314 317 317 318 317 314 314 313 311 311 310 310 310 310 310 310 309 308 308 308 307 308 308 307 307 307 307 306 306 306 307 307 307 308 310
311 311 313 313 310 314 311 314 317 319 318 317 317 317 315 314 313 312 311 310 309 310 309 308 307 307 307 306 305 306 306 306 306 307 306 306 306 306 306 306 306 307 307 306
311 311 313 311 308 311 312 318 317 316 317 316 316 315 313 312 312 311 311 309 309 309 308 307 307 306 305 305 306 306 307 307 306 306 305 304 304 304 303 304 306 307 306 306
312 313 314 313 314 314 316 317 315 315 314 315 314 312 310 310 310 308 309 309 308 308 307 306 306 305 305 305 305 304 303 303 302 301 301 301 300 301 303 304 305 306 306 306
316 315 316 315 315 313 314 315 315 314 313 313 313 311 310 309 308 309 308 308 308 307 306 305 304 304 304 304 303 303 301 300 299 298 299 298 298 298 300 300 302 303 306 306
314 315 314 314 316 316 313 314 315 312 314 313 311 311 310 308 308 308 308 307 307 306 305 304 303 304 303 301 301 300 298 297 296 296 296 295 295 296 298 300 302 303 303 305
309 311 315 313 315 313 313 313 314 313 312 312 310 310 308 308 308 307 307 307 306 305 304 304 303 301 299 299 298 296 296 295 294 294 294 294 294 295 296 297 299 302 302 303
310 313 314 312 313 313 312 312 312 311 311 311 310 308 308 308 307 307 306 305 304 304 304 303 300 298 298 296 295 294 294 293 293 293 293 293 294 294 294 295 296 297 299 300
306 309 309 309 310 310 312 311 312 310 310 310 308 308 307 307 306 305 306 305 304 303 302 299 297 297 295 294 294 293 293 293 292 292 292 293 293 293 294 295 296 297 299 300
306 305 307 307 310 309 310 310 309 309 309 308 307 307 306 305 305 305 304 304 303 301 298 297 295 294 294 293 293 295 294 292 292 292 292 292 293 293 294 294 295 296 297 299
Wind_Speed
3 4 5 8 7 7 6 5 8 11 11 4 6 7 9 16 14 13 14 15 22 24 25 26 25 23 25 22 20 20 22 19 15 15 19 24 28 28 29 28 29 35 34 36
2 7 11 9 7 7 8 10 12 8 10 7 4 7 5 5 6 14 14 16 20 25 28 29 25 23 27 25 22 20 21 20 16 13 12 17 24 25 26 27 29 29 32 37
6 9 9 9 10 8 9 9 6 8 6 2 3 6 5 7 6 12 12 18 23 27 31 34 32 30 27 30 29 27 22 15 10 10 11 12 15 20 24 28 28 24 25 32
6 17 11 7 8 8 15 12 8 5 1 5 2 5 4 6 8 6 20 28 27 34 35 31 37 34 28 26 25 23 20 17 14 11 13 15 17 20 24 25 28 29 26 22
7 3 2 3 3 3 8 6 6 1 1 3 7 2 7 5 10 10 10 26 29 30 36 35 29 25 24 29 26 22 18 15 13 13 16 16 13 15 18 21 25 29 30 29
5 3 3 3 7 3 5 1 5 4 3 2 5 4 2 5 5 8 12 11 18 15 14 22 30 30 27 21 18 15 14 13 12 11 12 15 18 19 19 20 22 25 26 25
4 4 2 4 2 7 9 6 4 4 3 5 3 3 7 3 4 5 4 16 21 21 27 27 28 24 18 13 9 7 6 7 10 12 13 15 18 23 23 21 23 26 25 24
3 1 3 2 4 1 2 4 4 4 3 4 5 4 4 3 9 19 11 8 32 27 21 17 15 14 11 8 5 2 3 7 11 14 17 20 22 22 24 25 26 28 30 27
4 4 2 11 5 3 4 4 4 3 3 2 4 5 6 4 8 14 16 22 22 18 16 14 13 10 8 5 3 1 2 6 10 13 17 20 22 23 26 29 31 30 30 29
1 1 5 6 6 5 4 3 1 3 2 4 4 4 5 4 7 9 8 15 19 14 13 11 8 6 3 2 1 4 8 12 14 17 19 22 23 25 25 23 25 28 29 29
3 4 5 4 2 2 5 4 3 3 4 4 2 5 4 6 5 6 4 9 11 12 17 15 12 11 10 12 15 18 19 21 19 15 19 20 21 21 24 27 26 27 28 29
3 4 0 4 7 5 3 1 3 4 3 2 2 7 3 4 7 13 13 12 13 10 12 14 15 20 25 28 29 24 18 19 21 19 18 20 22 23 25 29 31 33 34 34
0 3 3 8 5 6 6 3 3 4 3 6 4 4 5 14 13 17 22 29 20 9 9 9 11 9 5 6 10 11 13 15 16 19 24 28 29 31 33 35 38 39 40 37
7 2 5 5 4 1 5 7 5 7 4 4 11 16 16 18 13 14 25 18 15 8 5 6 4 5 7 8 10 11 11 12 13 14 16 19 21 23 26 29 32 34 35 38
5 4 3 4 6 5 8 12 13 9 9 10 11 16 16 8 2 4 2 6 11 11 10 12 14 17 18 20 22 25 28 30 32 32 32 33 33 33 32 30 30 31 33 37
3 3 3 4 8 10 13 14 13 15 13 13 14 13 4 2 5 8 11 13 12 14 16 20 23 25 28 30 33 37 39 40 40 41 43 43 44 44 43 40 38 37 33 30
4 5 3 4 4 7 7 6 7 6 2 3 2 1 3 5 7 7 9 11 14 18 20 20 22 25 28 31 33 35 36 39 43 45 46 46 46 45 43 43 45 45 41 39
6 5 3 3 3 2 5 6 2 8 3 2 4 1 2 3 9 10 9 16 19 18 18 21 26 31 35 38 39 38 40 43 45 45 44 43 42 38 38 41 43 43 40 40
7 5 3 3 3 6 7 3 3 1 4 3 2 3 4 12 11 11 11 22 20 21 26 31 33 36 36 37 38 37 36 38 43 47 51 54 56 58 59 51 42 38 38 39
7 4 3 3 4 5 2 2 2 2 3 3 4 3 7 11 3 4 16 17 24 29 31 32 34 34 34 33 40 49 53 55 53 51 48 43 45 36 34 35 33 34 36 37
3 1 7 6 5 5 3 4 1 3 5 4 11 9 11 2 7 21 23 28 31 30 31 29 33 39 41 44 49 50 46 43 50 42 40 46 39 43 45 45 44 38 30 33
5 4 3 2 3 6 4 3 3 5 4 10 10 14 10 13 17 22 28 31 30 31 35 40 36 41 49 46 41 43 45 46 45 43 44 40 38 35 36 29 29 29 36 31
1 5 2 4 3 8 16 13 4 3 4 6 13 12 9 15 21 26 28 29 29 35 36 35 45 50 49 38 37 45 44 44 41 39 39 37 36 35 35 34 31 28 31 30
4 5 3 1 3 8 12 1 3 6 10 13 13 9 14 20 22 24 28 28 35 33 38 49 52 50 40 43 44 41 41 37 33 34 34 33 33 32 33 32 32 31 37 33
6 3 3 4 6 7 9 9 12 10 16 12 8 12 14 17 22 26 27 34 32 39 49 50 46 39 46 47 43 38 36 31 33 33 34 33 32 31 30 30 30 32 31 31
7 6 4 5 8 6 10 8 10 14 5 7 11 15 18 21 24 27 31 29 39 47 48 45 38 44 45 42 40 36 33 31 31 33 35 35 33 30 31 29 29 30 34 37
Wind_Direction
181 90 217 227 204 206 240 244 254 275 270 236 243 254 296 253 227 237 234 224 216 214 229 235 240 244 226 216 213 194 191 195 210 228 233 240 247 248 252 260 271 267 269 270
28 217 222 221 225 227 242 251 270 282 271 191 302 307 301 313 247 218 215 220 225 228 233 235 234 222 228 226 211 207 199 203 214 228 233 242 255 260 262 264 268 271 269 269
184 242 215 231 260 247 247 224 227 217 283 216 287 317 323 303 307 282 250 255 253 243 243 245 240 231 220 211 203 188 187 193 199 227 243 249 253 263 268 269 272 278 271 268
212 244 242 259 244 247 254 239 227 253 30 272 85 277 302 281 303 270 282 291 288 283 263 250 233 230 210 193 185 190 192 193 198 213 242 253 252 257 262 270 275 281 282 280
240 64 20 261 209 295 239 232 230 198 119 48 327 87 269 334 305 290 289 298 299 284 268 241 230 206 182 170 172 175 175 182 194 210 232 244 248 261 272 276 282 284 288 293
233 261 233 227 295 290 295 43 39 62 90 8 250 194 273 268 275 301 301 324 307 282 214 165 148 148 145 151 152 155 166 172 189 215 237 256 270 283 293 302 300 290 292 300
352 279 248 243 347 12 35 48 358 343 348 221 21 357 227 294 345 298 271 97 86 109 121 123 127 128 129 132 141 162 193 220 244 258 271 282 295 298 297 295 296 300 301 302
163 342 106 346 132 62 21 139 148 236 213 254 342 245 255 116 29 29 68 46 110 111 108 104 104 113 123 134 147 182 261 274 271 272 276 284 288 289 288 291 296 301 302 303
187 241 63 68 39 74 321 61 155 131 346 110 238 282 319 53 49 43 59 72 70 80 88 93 100 108 116 124 125 97 292 279 282 283 285 287 286 282 282 286 293 296 301 304
213 16 357 2 30 44 119 203 8 17 328 280 292 253 233 37 52 39 33 23 29 42 43 43 38 45 50 41 325 296 296 292 284 286 282 270 265 266 275 280 278 288 293 300
76 92 297 29 15 57 1 0 17 100 127 219 263 255 201 151 125 98 62 4 313 307 313 332 354 341 325 322 310 301 302 302 298 276 259 257 258 260 272 272 271 279 284 290
335 132 322 262 278 284 180 95 95 132 282 300 294 254 45 90 11 340 323 300 265 259 294 292 300 289 301 292 292 289 287 278 278 274 260 263 265 267 268 274 278 283 286 290
262 23 21 343 5 3 70 102 123 99 100 233 259 246 329 330 317 295 286 292 297 234 234 249 268 277 313 300 290 295 288 289 278 278 283 284 280 277 277 277 279 279 283 288
91 102 160 200 235 194 312 312 240 195 183 232 243 281 281 280 292 251 276 282 276 274 20 30 355 347 325 314 309 297 289 282 274 273 274 274 277 275 274 277 277 276 276 279
106 184 196 252 273 294 287 273 274 252 232 230 265 257 271 287 317 22 68 10 62 46 19 352 334 325 317 311 306 301 296 295 296 295 291 287 286 286 283 281 276 272 273 276
19 209 163 258 245 258 275 281 277 265 261 259 262 266 333 211 65 33 38 53 34 11 352 336 329 322 319 315 311 310 306 303 300 295 291 293 294 287 283 284 283 274 271 267
143 138 115 262 346 321 283 239 257 234 135 213 219 212 309 2 349 7 52 28 1 345 337 327 326 323 318 316 313 308 303 297 295 296 296 295 295 293 291 288 283 275 274 274
149 139 141 260 17 255 239 319 248 129 133 332 120 357 216 247 324 299 17 3 345 345 341 327 320 316 313 309 305 299 296 295 292 288 287 287 288 287 286 287 280 276 276 273
168 151 161 184 209 290 308 16 1 131 224 215 215 235 300 326 323 299 319 338 338 328 318 317 316 314 313 310 306 302 294 291 292 290 289 288 289 287 288 284 270 266 270 270
165 132 128 171 205 231 178 305 265 195 255 265 307 303 283 324 310 236 321 327 324 323 321 320 317 311 307 304 303 303 302 301 297 296 293 288 293 290 280 271 275 274 266 262
86 72 219 220 233 271 229 286 151 108 219 266 297 295 320 278 275 316 324 324 323 322 320 318 313 308 308 312 307 300 299 295 300 300 287 291 285 280 277 275 268 272 258 254
165 203 215 253 225 256 243 315 193 228 249 260 302 321 317 318 320 321 321 322 323 320 318 318 313 311 313 311 303 301 299 302 304 298 296 291 288 286 278 276 273 266 268 261
245 186 196 208 258 321 327 275 250 255 298 313 309 310 317 320 322 321 320 319 318 321 319 314 315 314 313 308 304 305 304 304 302 297 294 292 289 283 277 269 268 274 267 258
327 162 207 56 242 253 247 268 333 315 306 303 311 312 322 322 322 316 317 318 323 319 317 320 320 316 311 310 314 306 307 308 303 298 295 292 288 284 282 276 270 266 260 260
223 286 221 256 276 303 212 308 306 308 310 310 311 323 327 319 318 321 319 322 320 319 321 322 320 314 310 315 318 316 317 318 310 302 299 297 294 288 280 277 269 261 264 254
205 204 180 241 223 220 263 304 307 302 326 318 327 323 322 324 325 323 319 319 323 324 323 323 317 315 319 320 321 323 324 319 314 308 305 302 298 290 286 279 271 263 251 247